Location: Lafig�re
(44.4503°N, 4.0357°E)
Time: 07:03:14
(UTC+00:00)

Cosmos 1092 Rocket - Pass Details

Date: 31 January 2021
Orbit: 954 x 994 km, 83.0° (Epoch: 08 March)

Event Time Altitude Azimuth Distance (km) Brightness Sun altitude
Rises 02:40:47 0° 8° (N) 3,648 7.3 -46.4°
Reaches altitude 10° 02:45:08 10° 37° (NE) 2,703 6.8 -45.7°
Maximum altitude 02:47:38 12° 61° (ENE) 2,523 6.7 -45.3°
Drops below altitude 10° 02:50:08 10° 85° (E) 2,705 6.9 -44.9°
Sets 02:54:27 0° 114° (ESE) 3,656 7.5 -44.1°
